Tracking 22836 objects as of 18-Apr-2021
HD Live streaming from Space Station
objects crossing your sky now

DELTA 1 DEB

Track DELTA 1 DEB now!
10-day predictions


NORAD ID: 39095
Int'l Code: 1973-086HH
Perigee: 1,506.6 km
Apogee: 1,599.8 km
Inclination: 102.4 °
Period: 117.0 minutes
Semi major axis: 7924 km
RCS: 0.0177 m2 (small)
Launch date: November 6, 1973
Source: United States (US)
Launch site: AIR FORCE WESTERN TEST RANGE (AFWTR)

Note: This is SATELLITE DEBRIS
aabbcc
Your satellite tracking list
Your tracking list is empty




NASA's NSSDC Master Catalog

Two Line Element Set (TLE):
1 39095U 73086HH  21107.23691010 -.00000006  00000-0  33068-3 0  9993
2 39095 102.3940  87.7651 0058823  17.7330 342.5763 12.30749842345280
Source of the keplerian elements: AFSPC